Hourly Weather Kozmice

Today, 23 October, Friday

Time Temperature Precipitation Wind Pressure Humidity
00:00 +12°C° 0 mm 3 mps 738 mmHg 76%
01:00 +12°C° 0 mm 3 mps 738 mmHg 78%
02:00 +12°C° 0 mm 3 mps 738 mmHg 77%
03:00 +12°C° 0 mm 3 mps 737 mmHg 76%
04:00 +12°C° 0 mm 3 mps 737 mmHg 75%
05:00 +12°C° 0 mm 3 mps 737 mmHg 76%
06:00 +12°C° 0 mm 3 mps 737 mmHg 76%
07:00 +12°C° 0 mm 3 mps 737 mmHg 76%
08:00 +12°C° 0 mm 3 mps 737 mmHg 75%
09:00 +13°C° 0 mm 3 mps 737 mmHg 74%
10:00 +14°C° 0 mm 3 mps 737 mmHg 72%
11:00 +14°C° 0 mm 3 mps 737 mmHg 73%
12:00 +14°C° 0 mm 3 mps 736 mmHg 73%
13:00 +16°C° 0 mm 3 mps 736 mmHg 74%
14:00 +13°C° 0 mm 2 mps 736 mmHg 88%
15:00 +14°C° 0 mm 2 mps 736 mmHg 83%
16:00 +15°C° 0 mm 2 mps 735 mmHg 79%
17:00 +15°C° 0 mm 2 mps 735 mmHg 80%
18:00 +15°C° 0 mm 2 mps 735 mmHg 80%
19:00 +14°C° 0 mm 2 mps 735 mmHg 81%
20:00 +14°C° 0.1 mm 2 mps 735 mmHg 82%
21:00 +14°C° 0.1 mm 2 mps 735 mmHg 83%
22:00 +14°C° 0.1 mm 2 mps 735 mmHg 85%
23:00 +13°C° 0.6 mm 2 mps 735 mmHg 87%

Tomorrow, 24 October, Saturday

Time Temperature Precipitation Wind Pressure Humidity
00:00 +13°C° 0.6 mm 2 mps 735 mmHg 89%
01:00 +12°C° 0.6 mm 3 mps 735 mmHg 92%
02:00 +13°C° 1.5 mm 2 mps 735 mmHg 93%
03:00 +13°C° 1.5 mm 2 mps 736 mmHg 94%
04:00 +13°C° 1.5 mm 2 mps 736 mmHg 95%
05:00 +13°C° 0.2 mm 2 mps 736 mmHg 95%
06:00 +12°C° 0.2 mm 2 mps 736 mmHg 95%
07:00 +12°C° 0.2 mm 1 mps 737 mmHg 95%
08:00 +13°C° 0.1 mm 2 mps 737 mmHg 90%
09:00 +14°C° 0.1 mm 2 mps 737 mmHg 85%
10:00 +16°C° 0.1 mm 3 mps 738 mmHg 80%
11:00 +16°C° 0.1 mm 3 mps 738 mmHg 76%
12:00 +17°C° 0.1 mm 3 mps 738 mmHg 72%
13:00 +17°C° 0.1 mm 3 mps 738 mmHg 68%
14:00 +16°C° 0 mm 3 mps 738 mmHg 71%
15:00 +16°C° 0 mm 2 mps 738 mmHg 73%
16:00 +15°C° 0 mm 2 mps 738 mmHg 76%
17:00 +14°C° 0 mm 2 mps 738 mmHg 79%
18:00 +13°C° 0 mm 2 mps 739 mmHg 82%
19:00 +12°C° 0 mm 2 mps 739 mmHg 85%
20:00 +12°C° 0 mm 2 mps 739 mmHg 85%
21:00 +10°C° 0 mm 2 mps 739 mmHg 86%
22:00 +10°C° 0 mm 2 mps 740 mmHg 86%
23:00 +10°C° 0 mm 2 mps 739 mmHg 87%

Day after tomorrow, 25 October, Sunday

Time Temperature Precipitation Wind Pressure Humidity
00:00 +9°C° 0 mm 2 mps 739 mmHg 87%
01:00 +10°C° 0 mm 1 mps 739 mmHg 88%
02:00 +10°C° 0 mm 1 mps 739 mmHg 88%
03:00 +10°C° 0 mm 1 mps 739 mmHg 89%
04:00 +10°C° 0 mm 1 mps 739 mmHg 89%
05:00 +9°C° 0 mm 1 mps 739 mmHg 89%
06:00 +8°C° 0 mm 2 mps 739 mmHg 88%
07:00 +8°C° 0 mm 2 mps 739 mmHg 88%
08:00 +10°C° 0 mm 2 mps 739 mmHg 81%
09:00 +13°C° 0 mm 2 mps 739 mmHg 74%
10:00 +15°C° 0 mm 2 mps 739 mmHg 68%
11:00 +16°C° 0 mm 2 mps 738 mmHg 64%
12:00 +17°C° 0 mm 2 mps 738 mmHg 60%
13:00 +18°C° 0 mm 2 mps 737 mmHg 56%
14:00 +17°C° 0 mm 2 mps 737 mmHg 61%
15:00 +16°C° 0 mm 2 mps 737 mmHg 65%
16:00 +15°C° 0 mm 2 mps 736 mmHg 70%
17:00 +14°C° 0 mm 2 mps 736 mmHg 74%
18:00 +12°C° 0 mm 2 mps 736 mmHg 79%
19:00 +10°C° 0 mm 2 mps 736 mmHg 83%
20:00 +10°C° 0 mm 2 mps 735 mmHg 84%
21:00 +10°C° 0 mm 2 mps 735 mmHg 86%
22:00 +9°C° 0 mm 2 mps 735 mmHg 87%
23:00 +9°C° 0 mm 2 mps 735 mmHg 88%

, 26 October, Monday

Time Temperature Precipitation Wind Pressure Humidity
00:00 +9°C° 0 mm 2 mps 734 mmHg 88%
01:00 +9°C° 0 mm 2 mps 734 mmHg 89%
02:00 +9°C° 0 mm 2 mps 733 mmHg 89%
03:00 +8°C° 0 mm 2 mps 733 mmHg 90%
04:00 +8°C° 0 mm 2 mps 733 mmHg 90%
05:00 +9°C° 0 mm 2 mps 732 mmHg 90%
06:00 +9°C° 0 mm 2 mps 732 mmHg 90%
07:00 +9°C° 0 mm 2 mps 732 mmHg 90%
08:00 +10°C° 0 mm 2 mps 731 mmHg 86%
09:00 +12°C° 0 mm 3 mps 731 mmHg 81%
10:00 +13°C° 0 mm 3 mps 731 mmHg 77%
11:00 +14°C° 0 mm 3 mps 730 mmHg 74%
12:00 +14°C° 0 mm 4 mps 730 mmHg 72%
13:00 +15°C° 0 mm 4 mps 730 mmHg 70%
14:00 +14°C° 0.1 mm 4 mps 729 mmHg 73%
15:00 +14°C° 0.1 mm 4 mps 729 mmHg 77%
16:00 +13°C° 0.1 mm 4 mps 728 mmHg 80%
17:00 +13°C° 0.1 mm 4 mps 728 mmHg 82%
18:00 +12°C° 0.1 mm 4 mps 728 mmHg 83%
19:00 +12°C° 0.1 mm 4 mps 728 mmHg 84%
20:00 +12°C° 0.1 mm 3 mps 728 mmHg 86%
21:00 +12°C° 0.1 mm 3 mps 728 mmHg 88%
22:00 +11°C° 0.1 mm 3 mps 728 mmHg 90%
23:00 +12°C° 0 mm 2 mps 728 mmHg 90%

26 October, Monday

Time Temperature Precipitation Wind Pressure Humidity
00:00 +9°C° 0 mm 2 mps 734 mmHg 88%
01:00 +9°C° 0 mm 2 mps 734 mmHg 89%
02:00 +9°C° 0 mm 2 mps 733 mmHg 89%
03:00 +8°C° 0 mm 2 mps 733 mmHg 90%
04:00 +8°C° 0 mm 2 mps 733 mmHg 90%
05:00 +9°C° 0 mm 2 mps 732 mmHg 90%
06:00 +9°C° 0 mm 2 mps 732 mmHg 90%
07:00 +9°C° 0 mm 2 mps 732 mmHg 90%
08:00 +10°C° 0 mm 2 mps 731 mmHg 86%
09:00 +12°C° 0 mm 3 mps 731 mmHg 81%
10:00 +13°C° 0 mm 3 mps 731 mmHg 77%
11:00 +14°C° 0 mm 3 mps 730 mmHg 74%
12:00 +14°C° 0 mm 4 mps 730 mmHg 72%
13:00 +15°C° 0 mm 4 mps 730 mmHg 70%
14:00 +14°C° 0.1 mm 4 mps 729 mmHg 73%
15:00 +14°C° 0.1 mm 4 mps 729 mmHg 77%
16:00 +13°C° 0.1 mm 4 mps 728 mmHg 80%
17:00 +13°C° 0.1 mm 4 mps 728 mmHg 82%
18:00 +12°C° 0.1 mm 4 mps 728 mmHg 83%
19:00 +12°C° 0.1 mm 4 mps 728 mmHg 84%
20:00 +12°C° 0.1 mm 3 mps 728 mmHg 86%
21:00 +12°C° 0.1 mm 3 mps 728 mmHg 88%
22:00 +11°C° 0.1 mm 3 mps 728 mmHg 90%
23:00 +12°C° 0 mm 2 mps 728 mmHg 90%

27 October, Tuesday

Time Temperature Precipitation Wind Pressure Humidity
00:00 +12°C° 0 mm 2 mps 728 mmHg 91%
01:00 +10°C° 0 mm 2 mps 729 mmHg 91%
02:00 +10°C° 0 mm 2 mps 729 mmHg 91%
03:00 +10°C° 0 mm 2 mps 729 mmHg 91%
04:00 +9°C° 0 mm 2 mps 730 mmHg 91%
05:00 +9°C° 0 mm 2 mps 730 mmHg 91%
06:00 +9°C° 0 mm 2 mps 730 mmHg 91%
07:00 +10°C° 0 mm 1 mps 731 mmHg 91%
08:00 +12°C° 0 mm 2 mps 731 mmHg 86%
09:00 +13°C° 0 mm 2 mps 731 mmHg 81%
10:00 +15°C° 0 mm 2 mps 731 mmHg 76%
11:00 +15°C° 0 mm 2 mps 732 mmHg 74%
12:00 +16°C° 0 mm 2 mps 732 mmHg 73%
13:00 +16°C° 0 mm 2 mps 732 mmHg 71%
14:00 +15°C° 0 mm 2 mps 732 mmHg 74%
15:00 +15°C° 0 mm 2 mps 732 mmHg 77%
16:00 +14°C° 0 mm 2 mps 732 mmHg 80%
17:00 +14°C° 0 mm 2 mps 733 mmHg 82%
18:00 +13°C° 0 mm 2 mps 733 mmHg 85%
19:00 +12°C° 0 mm 2 mps 733 mmHg 87%
20:00 +12°C° 0 mm 2 mps 734 mmHg 87%
21:00 +12°C° 0 mm 2 mps 734 mmHg 88%
22:00 +10°C° 0 mm 3 mps 734 mmHg 88%
23:00 +10°C° 0 mm 3 mps 735 mmHg 87%

28 October, Wednesday

Time Temperature Precipitation Wind Pressure Humidity
00:00 +9°C° 0 mm 3 mps 735 mmHg 85%
01:00 +9°C° 0 mm 3 mps 735 mmHg 84%
02:00 +9°C° 0 mm 3 mps 735 mmHg 83%
03:00 +9°C° 0 mm 3 mps 735 mmHg 82%
04:00 +8°C° 0 mm 3 mps 735 mmHg 82%
05:00 +8°C° 0 mm 3 mps 736 mmHg 82%
06:00 +8°C° 0 mm 3 mps 736 mmHg 83%
07:00 +7°C° 0 mm 3 mps 736 mmHg 83%
08:00 +8°C° 0 mm 3 mps 737 mmHg 81%
09:00 +9°C° 0 mm 3 mps 737 mmHg 79%
10:00 +10°C° 0 mm 3 mps 738 mmHg 77%
11:00 +11°C° 0 mm 3 mps 738 mmHg 76%
12:00 +11°C° 0 mm 3 mps 738 mmHg 75%
13:00 +12°C° 0 mm 2 mps 738 mmHg 75%
14:00 +12°C° 0 mm 2 mps 738 mmHg 76%
15:00 +12°C° 0 mm 2 mps 738 mmHg 78%
16:00 +10°C° 0 mm 2 mps 738 mmHg 79%
17:00 +9°C° 0 mm 3 mps 739 mmHg 81%
18:00 +8°C° 0 mm 3 mps 739 mmHg 82%
19:00 +8°C° 0 mm 3 mps 739 mmHg 84%
20:00 +7°C° 0 mm 3 mps 739 mmHg 82%
21:00 +7°C° 0 mm 3 mps 739 mmHg 81%
22:00 +5°C° 0 mm 3 mps 739 mmHg 80%
23:00 +5°C° 0 mm 3 mps 739 mmHg 79%
Show more